Orbital Elements at Epoch 2459200.5 (2020-Dec-17.0) TDB
Reference: JPL 27 (heliocentric ecliptic J2000)
Element | Value | Uncertainty (1-sigma) | Units |
e | .130675016988172 | 3.3323e-08 | |
a | 2.602774940779423 | 1.2751e-08 | au |
q | 2.262657281176683 | 8.4817e-08 | au |
i | 4.915194745327415 | 3.8953e-06 | deg |
node | 80.15572032618016 | 5.4323e-05 | deg |
peri | 198.6462052979777 | 5.7441e-05 | deg |
M | 150.3066583565772 | 1.8855e-05 | deg |
tp | 2458560.132812046924 (2019-Mar-17.63281205) | 7.9817e-05 | TDB |
period | 1533.745678226767 4.20 | 1.1271e-05 3.086e-08 | d yr |
n | .2347194877942296 | 1.7249e-09 | deg/d |
Q | 2.942892600382162 | 1.4417e-08 | au |
|
| | Orbit Determination Parameters
Additional Information
|